GW2517 Weather Reports


time (UTC)temp
C
wind
direction
speed
KPH
gust
KPH
rain 1hr
cm
rain 24hr
cm
rain mn
cm
humidity
%
barometer
mb
20260507161555 7 323 9.7 24.1 0.00 0.00 0.00 43 1010.5
20260507160532 7 336 11.3 17.7 0.00 0.00 0.00 44 1010.6
20260507155529 7 326 12.9 20.9 0.00 0.00 0.00 47 1010.6
20260507154526 7 323 14.5 20.9 0.00 0.00 0.00 45 1010.7
20260507153544 6 281 6.4 14.5 0.00 0.00 0.00 46 1010.6
20260507152520 6 337 11.3 16.1 0.00 0.00 0.00 47 1010.7
20260507151518 6 328 11.3 19.3 0.00 0.00 0.00 47 1010.7
20260507150555 6 331 12.9 20.9 0.00 0.00 0.00 48 1010.7
20260507145532 6 334 14.5 20.9 0.00 0.00 0.00 49 1010.9
20260507144549 6 343 9.7 14.5 0.00 0.00 0.00 52 1010.9
20260507143528 6 339 16.1 24.1 0.00 0.00 0.00 51 1011.1
20260507142524 6 336 9.7 20.9 0.00 0.00 0.00 51 1011.1
20260507141521 5 332 11.3 22.5 0.00 0.00 0.00 55 1011.1
20260507140518 6 334 12.9 17.7 0.00 0.00 0.00 56 1011.1
20260507135515 5 332 11.3 17.7 0.00 0.00 0.00 58 1011.3
20260507134533 5 333 8.0 14.5 0.00 0.00 0.00 61 1011.3
20260507133550 5 324 8.0 12.9 0.00 0.00 0.00 63 1011.4
20260507132527 5 334 6.4 11.3 0.00 0.00 0.00 66 1011.4
20260507131525 4 345 6.4 9.7 0.00 0.00 0.00 69 1011.4
20260507130521 3 340 3.2 6.4 0.00 0.00 0.00 71 1011.4
20260507125518 2 9 3.2 6.4 0.00 0.00 0.00 73 1011.5
20260507124515 2 349 6.4 9.7 0.00 0.00 0.00 76 1011.4
20260507123533 2 336 3.2 6.4 0.00 0.00 0.00 76 1011.5
20260507122611 2 340 3.2 8.0 0.00 0.00 0.00 76 1011.4
20260507121527 2 350 1.6 4.8 0.00 0.00 0.00 77 1011.3
20260507120525 1 35 1.6 3.2 0.00 0.00 0.00 78 1011.3
20260507115522 1 33 1.6 3.2 0.00 0.00 0.00 79 1011.3
20260507114519 1 25 3.2 3.2 0.00 0.00 0.00 78 1011.3
20260507113536 1 14 3.2 4.8 0.00 0.00 0.00 78 1011.2
20260507112534 1 19 3.2 4.8 0.00 0.00 0.00 83 1011.2
20260507111531 1 20 3.2 4.8 0.00 0.00 0.00 79 1011.0
20260507110528 1 15 3.2 4.8 0.00 0.00 0.00 79 1011.0
20260507105526 1 18 1.6 4.8 0.00 0.00 0.00 80 1011.1
20260507104522 1 20 3.2 4.8 0.00 0.00 0.00 82 1011.1
20260507103520 1 22 4.8 6.4 0.00 0.00 0.00 78 1011.1
20260507102517 1 14 4.8 6.4 0.00 0.00 0.00 79 1011.1
20260507101534 1 23 3.2 4.8 0.00 0.00 0.00 85 1011.2
20260507100532 1 32 3.2 6.4 0.00 0.00 0.00 85 1011.3
20260507095529 0 26 3.2 4.8 0.00 0.00 0.00 86 1011.2
20260507094526 0 26 4.8 6.4 0.00 0.00 0.00 89 1011.2
20260507093624 0 24 3.2 4.8 0.00 0.00 0.00 91 1011.2
20260507092520 0 9 3.2 4.8 0.00 0.00 0.00 91 1011.2
20260507091538 0 30 3.2 4.8 0.00 0.00 0.00 91 1011.2
20260507090535 0 23 3.2 4.8 0.00 0.00 0.00 91 1011.2
20260507085552 0 22 3.2 4.8 0.00 0.00 0.00 90 1011.1
20260507084530 0 14 3.2 4.8 0.00 0.00 0.00 90 1011.1
20260507083527 0 12 3.2 4.8 0.00 0.00 0.00 88 1011.0
20260507082524 1 33 3.2 4.8 0.00 0.00 0.00 88 1011.1
20260507081521 1 6 3.2 4.8 0.00 0.00 0.00 87 1011.2
20260507080538 1 7 3.2 6.4 0.00 0.00 0.00 88 1011.1
20260507075516 1 23 3.2 4.8 0.00 0.00 0.00 86 1011.2
20260507074533 1 26 3.2 3.2 0.00 0.00 0.00 85 1011.2
20260507073530 1 10 3.2 4.8 0.00 0.00 0.00 85 1011.2
20260507072527 1 11 3.2 3.2 0.00 0.00 0.00 84 1011.3
20260507071546 2 11 3.2 4.8 0.00 0.00 0.00 84 1011.4
20260507070522 2 12 3.2 4.8 0.00 0.00 0.00 85 1011.5
20260507065520 2 4 3.2 4.8 0.00 0.00 0.00 83 1011.6
20260507064516 2 6 4.8 4.8 0.00 0.00 0.00 84 1011.8
20260507063534 2 13 1.6 3.2 0.00 0.00 0.00 82 1011.9
20260507062531 2 23 3.2 3.2 0.00 0.00 0.00 82 1012.0
20260507061529 2 8 3.2 4.8 0.00 0.00 0.00 83 1012.0
20260507060525 2 20 3.2 4.8 0.00 0.00 0.00 80 1012.0
20260507055523 2 2 4.8 4.8 0.00 0.00 0.00 84 1012.1
20260507054520 2 5 3.2 4.8 0.00 0.00 0.00 83 1012.1
20260507053517 2 14 3.2 4.8 0.00 0.00 0.00 80 1012.1
20260507051532 2 28 3.2 6.4 0.00 0.00 0.00 78 1012.3
20260507050530 2 5 3.2 6.4 0.00 0.00 0.00 80 1012.4
20260507045526 2 11 1.6 3.2 0.00 0.00 0.00 82 1012.3
20260507044523 2 360 4.8 4.8 0.00 0.00 0.00 80 1012.3
20260507043520 2 7 3.2 4.8 0.00 0.00 0.00 80 1012.4
20260507042558 2 13 3.2 4.8 0.00 0.00 0.00 78 1012.6
20260507041535 2 12 3.2 4.8 0.00 0.00 0.00 79 1012.6
20260507040532 2 12 3.2 6.4 0.00 0.00 0.00 78 1012.7
20260507035530 2 22 3.2 4.8 0.00 0.00 0.00 74 1012.7
20260507034527 2 20 3.2 4.8 0.00 0.00 0.00 75 1012.8
20260507033524 2 15 3.2 4.8 0.00 0.00 0.00 74 1012.9
20260507032541 2 4 3.2 6.4 0.00 0.00 0.00 79 1013.1
20260507031518 3 360 3.2 4.8 0.00 0.00 0.00 78 1013.0
20260507030536 3 6 4.8 6.4 0.00 0.00 0.00 76 1013.2
20260507025533 3 7 3.2 4.8 0.00 0.00 0.00 72 1013.3
20260507024531 3 24 3.2 4.8 0.00 0.00 0.00 71 1013.2
20260507023528 3 23 1.6 3.2 0.00 0.00 0.00 69 1013.3
20260507022525 3 15 3.2 4.8 0.00 0.00 0.00 67 1013.3
20260507021522 3 19 3.2 4.8 0.00 0.00 0.00 67 1013.4
20260507020600 3 10 3.2 4.8 0.00 0.00 0.00 67 1013.3
20260507015517 4 1 4.8 4.8 0.00 0.00 0.00 65 1013.2
20260507014534 4 3 3.2 4.8 0.00 0.00 0.00 60 1013.2
20260507013531 4 359 3.2 6.4 0.00 0.00 0.00 58 1013.2
20260507012528 4 355 4.8 6.4 0.00 0.00 0.00 58 1013.2
20260507011525 5 345 4.8 9.7 0.00 0.00 0.00 57 1013.2
20260507010522 5 341 6.4 9.7 0.00 0.00 0.00 57 1013.2
20260507005519 5 341 8.0 12.9 0.00 0.00 0.00 56 1013.2
20260507004557 5 336 9.7 16.1 0.00 0.00 0.00 56 1013.3
20260507003535 5 342 9.7 14.5 0.00 0.00 0.00 56 1013.4
20260507002531 5 337 8.0 14.5 0.00 0.00 0.00 56 1013.2
20260507001529 5 335 11.3 19.3 0.00 0.00 0.00 56 1013.3
20260507000526 5 336 8.0 14.5 0.00 0.00 0.00 56 1013.3
20260506235523 5 337 9.7 14.5 0.00 0.00 0.00 56 1013.2
20260506234520 5 336 14.5 20.9 0.00 0.00 0.00 55 1013.3
20260506233558 5 338 9.7 17.7 0.00 0.00 0.00 55 1013.4
20260506232555 5 333 9.7 17.7 0.00 0.00 0.00 55 1013.4
20260506231533 5 346 11.3 17.7 0.00 0.00 0.00 56 1013.4
20260506230529 5 337 12.9 20.9 0.00 0.00 0.00 55 1013.4
20260506225526 5 331 12.9 20.9 0.00 0.00 0.00 55 1013.4
20260506224524 5 334 12.9 24.1 0.00 0.00 0.00 55 1013.4
20260506223521 5 336 11.3 17.7 0.00 0.00 0.00 55 1013.4
20260506222518 5 337 11.3 17.7 0.00 0.00 0.00 56 1013.5
20260506221515 5 340 11.3 19.3 0.00 0.00 0.00 55 1013.6
20260506220533 5 333 9.7 20.9 0.00 0.00 0.00 55 1013.5
20260506215530 5 317 6.4 14.5 0.00 0.00 0.00 55 1013.5
20260506214527 5 336 14.5 27.4 0.00 0.00 0.00 56 1013.5
20260506213524 5 329 8.0 19.3 0.00 0.00 0.00 56 1013.5
20260506212521 5 325 12.9 24.1 0.00 0.00 0.00 56 1013.5
20260506211518 5 318 9.7 22.5 0.00 0.00 0.00 55 1013.5
20260506210515 5 290 8.0 14.5 0.00 0.00 0.00 55 1013.6
20260506205534 5 337 12.9 19.3 0.00 0.00 0.00 56 1013.5
20260506204530 5 338 12.9 17.7 0.00 0.00 0.00 57 1013.6
20260506203527 5 335 14.5 24.1 0.00 0.00 0.00 57 1013.7
20260506202525 5 337 11.3 25.7 0.00 0.00 0.00 56 1013.7
20260506201522 4 337 16.1 24.1 0.00 0.00 0.00 58 1013.7
20260506200519 4 337 8.0 11.3 0.00 0.00 0.00 59 1013.8
20260506195537 4 338 12.9 19.3 0.00 0.00 0.00 60 1013.9
20260506194534 4 340 12.9 20.9 0.00 0.00 0.00 61 1013.7
20260506193530 4 340 14.5 22.5 0.00 0.00 0.00 61 1013.8
20260506192528 4 339 14.5 20.9 0.00 0.00 0.00 61 1013.7
20260506191525 4 335 12.9 25.7 0.00 0.00 0.00 61 1013.8
20260506190522 4 340 12.9 19.3 0.00 0.00 0.00 61 1013.8
20260506185519 4 337 11.3 22.5 0.00 0.00 0.00 62 1013.9
20260506184516 4 331 11.3 20.9 0.00 0.00 0.00 62 1013.9
20260506183535 4 336 14.5 22.5 0.00 0.00 0.00 62 1013.9
20260506182531 4 335 14.5 20.9 0.00 0.00 0.00 62 1013.7
20260506181528 4 336 8.0 17.7 0.00 0.00 0.00 61 1013.8
20260506180525 4 338 9.7 17.7 0.00 0.00 0.00 60 1013.8
20260506175523 4 330 12.9 20.9 0.00 0.00 0.00 60 1013.9
20260506174520 4 339 9.7 16.1 0.00 0.00 0.00 60 1013.8
20260506173558 3 337 9.7 20.9 0.00 0.00 0.00 59 1014.0
20260506172534 4 337 9.7 16.1 0.00 0.00 0.00 59 1014.0
20260506171532 3 342 9.7 14.5 0.00 0.00 0.00 59 1013.9
20260506170529 3 324 9.7 19.3 0.00 0.00 0.00 58 1014.1
20260506165526 3 328 14.5 20.9 0.00 0.00 0.00 58 1014.1
20260506164524 4 336 12.9 20.9 0.00 0.00 0.00 58 1014.0
20260506163540 3 336 14.5 24.1 0.00 0.00 0.00 58 1014.0
20260506162517 3 331 12.9 20.9 0.00 0.00 0.00 58 1014.0